Location: Unspecified
(0.0000°N, 0.0000°E)
Time: 13:39:35
(UTC+00:00)

YAOGAN-30 A - Visible Passes

Search period start: 20 July 2025 00:00
Search period end: 30 July 2025 00:00
Orbit: 565 x 567 km, 35.0° (Epoch: 19 July)

Date Brightness Start Highest point End Pass type
(mag) Time Alt. Az. Time Alt. Az. Time Alt. Az.
20 Jul ? 19:11:01 10° S 19:13:31 19° SSE 19:13:31 19° SSE visible
21 Jul ? 19:09:09 10° SSW 19:13:00 32° SE 19:13:54 29° ESE visible
22 Jul ? 19:07:38 10° SW 19:11:52 56° SE 19:14:29 21° ENE visible
22 Jul ? 20:50:26 10° WNW 20:50:32 10° WNW 20:50:32 10° WNW visible
23 Jul ? 19:06:24 10° SW 19:10:42 80° NW 19:14:58 10° NE visible
24 Jul ? 05:26:01 10° N 05:28:43 16° NE 05:31:24 10° ENE visible
24 Jul ? 19:05:27 10° WSW 19:09:32 44° NW 19:13:37 10° NE visible
25 Jul ? 05:23:58 10° NNW 05:27:35 27° NE 05:31:13 10° E visible
25 Jul ? 19:04:49 10° W 19:08:23 25° NW 19:11:57 10° NNE visible
26 Jul ? 05:22:20 10° NW 05:26:26 46° NE 05:30:33 10° ESE visible
26 Jul ? 19:04:42 10° WNW 19:07:15 15° NW 19:09:49 10° N visible
27 Jul ? 03:42:57 10° NNE 03:43:49 10° NE 03:44:41 10° NE visible
27 Jul ? 05:20:59 10° NW 05:25:16 85° NE 05:29:33 10° SE visible
28 Jul ? 03:43:07 17° NE 03:43:07 17° NE 03:45:38 10° E visible
28 Jul ? 05:19:55 10° WNW 05:24:05 53° SW 05:28:16 10° SE visible
29 Jul ? 03:43:44 19° E 03:43:44 19° E 03:45:20 10° E visible
29 Jul ? 05:19:46 13° W 05:22:55 30° SW 05:26:41 10° SSE visible
